Terre Haute, IN

11:13 AM EST on December 06, 2019 (GMT -0500)
Terre Haute International-Hulman

Weather History for KHUF - October, 2019

Change the Weather History Date:

Thursday, October 24, 2019

  Actual Average Record
Temperature  
Mean Temperature 53 °F 52 °F  
Max Temperature 58 °F 63 °F 86 °F (1963)
Min Temperature 47 °F 41 °F 19 °F (1981)
Degree Days  
Heating Degree Days 12 14  
Month to date heating degree days 209 246  
Since 1 July heating degree days 211 324  
Cooling Degree Days 0 0  
Month to date cooling degree days 34 12  
Year to date cooling degree days 1298 990  
Growing Degree Days 4 (Base 50)    
Moisture  
Dew Point 43 °F    
Average Humidity 67    
Maximum Humidity 86    
Minimum Humidity 47    
Precipitation  
Precipitation 0.01 in 0.12 in 1.19 in (2001)
Month to date precipitation 2.71 2.81  
Year to date precipitation 40.64 37.51  
Sea Level Pressure  
Sea Level Pressure 30.23 in    
Wind  
Wind Speed 7 mph (NW)    
Max Wind Speed 17 mph    
Max Gust Speed 24 mph    
Visibility 10 miles    
Events Rain    
T = Trace of Precipitation, MM = Missing Value Source: NWS Daily Summary

Daily Weather History Graph

Daily Weather History Graph

Search for Another Location

Airport or City:

Astronomy

Oct. 24, 2019 Rise Set
Actual Time 8:08 AM EDT 6:57 PM EDT
Civil Twilight 7:40 AM EDT 7:25 PM EDT
Nautical Twilight 7:09 AM EDT 7:56 PM EDT
Astronomical Twilight 6:38 AM EDT 8:27 PM EDT
Moon 3:39 AM EDT (10/24) 5:23 PM EDT (10/24)
Length of Visible Light 11h 44m
Length of Day
10h 49m
Waning Crescent, 17% of the Moon is Illuminated
Oct 24
Waning Crescent
Oct 27
New
Nov 4
First Quarter
Nov 12
Full
Nov 19
Last Quarter

Hourly Weather History & Observations

Time (EDT) Temp. Dew Point Humidity Pressure Visibility Wind Dir Wind Speed Gust Speed Precip Events Conditions
12:53 AM 57.0 °F 37.9 °F 49% 30.09 in 10.0 mi SSW 13.8 mph - N/A   Mostly Cloudy
1:53 AM 57.0 °F 39.0 °F 51% 30.09 in 10.0 mi SSW 12.7 mph - N/A   Clear
2:53 AM 55.9 °F 39.0 °F 53% 30.09 in 10.0 mi SSW 10.4 mph - N/A   Partly Cloudy
3:53 AM 55.0 °F 39.9 °F 57% 30.11 in 10.0 mi South 9.2 mph - N/A   Overcast
4:53 AM 52.0 °F 39.9 °F 63% 30.11 in 10.0 mi South 4.6 mph - N/A   Mostly Cloudy
5:53 AM 51.1 °F 41.0 °F 68% 30.14 in 10.0 mi SSW 4.6 mph - N/A   Overcast
6:53 AM 50.0 °F 41.0 °F 71% 30.16 in 10.0 mi SW 3.5 mph - N/A   Partly Cloudy
7:53 AM 52.0 °F 42.1 °F 69% 30.18 in 10.0 mi West 4.6 mph - N/A   Overcast
8:53 AM 50.0 °F 44.1 °F 80% 30.22 in 10.0 mi NW 9.2 mph - N/A   Overcast
9:53 AM 50.0 °F 44.1 °F 80% 30.26 in 10.0 mi NNW 10.4 mph - N/A   Overcast
10:08 AM 50.0 °F 44.1 °F 80% 30.26 in 10.0 mi NNW 10.4 mph - N/A   Overcast
11:53 AM 53.1 °F 45.0 °F 74% 30.29 in 10.0 mi North 10.4 mph - N/A   Overcast
12:29 PM 53.1 °F 44.1 °F 71% 30.28 in 10.0 mi North 8.1 mph - N/A   Overcast
12:53 PM 54.0 °F 45.0 °F 72% 30.28 in 10.0 mi NNE 8.1 mph - N/A   Scattered Clouds
1:53 PM 55.0 °F 45.0 °F 69% 30.28 in 10.0 mi Variable 4.6 mph - N/A   Scattered Clouds
2:53 PM 55.9 °F 44.1 °F 64% 30.27 in 10.0 mi NNW 6.9 mph - N/A   Partly Cloudy
3:53 PM 57.0 °F 44.1 °F 62% 30.26 in 10.0 mi North 5.8 mph - N/A   Clear
4:53 PM 55.9 °F 44.1 °F 64% 30.28 in 10.0 mi North 5.8 mph - N/A   Overcast
5:53 PM 55.0 °F 44.1 °F 67% 30.29 in 10.0 mi NNW 5.8 mph - N/A   Overcast
6:53 PM 53.1 °F 44.1 °F 71% 30.29 in 10.0 mi North 5.8 mph - N/A   Overcast
7:53 PM 53.1 °F 44.1 °F 71% 30.30 in 10.0 mi North 4.6 mph - N/A   Overcast
8:53 PM 51.1 °F 45.0 °F 80% 30.31 in 10.0 mi NNW 3.5 mph - 0.00 in Rain Light Rain
9:53 PM 50.0 °F 46.0 °F 86% 30.31 in 10.0 mi North 4.6 mph - 0.01 in   Overcast
10:53 PM 50.0 °F 46.0 °F 86% 30.31 in 10.0 mi NNE 3.5 mph - N/A   Overcast
11:53 PM 50.0 °F 45.0 °F 83% 30.32 in 10.0 mi NNW 4.6 mph - N/A   Overcast